Хоринцы

Россия / Республика Саха (Якутия)     60°39′58″N   121°26′17″E
темп.,
°C
ветер,
м/с
пор.,
м/с
влажн.,
%
обл.,
%
осадки,
мм/ч
давл.,
гПа
погр.,
м
27 февраля, сб
сб2700:00−25вюв1294100 0.0 102420
03:00−26вюв1195100 0.0 102319
06:00−26ююв1196100 0.0 102319
09:00−25зюз1198100 0.0 102231
12:00−22з2296100 0.2 1021364
15:00−21зсз3696100 0.8 1020614
18:00−22зсз3796100 0.5 1022726
21:00−24зсз41096100 0.9 1022746
28 февраля, вс
вс2800:00−24сз41096100 0.3 1023948
03:00−24зсз41097100 0.5 1025862
06:00−26зсз41094100 0.2 1027666
09:00−27з41093100 0.2 1029570
12:00−26з5988100 0.0 1030811
15:00−24з4884100 0.1 10301140
18:00−25з3890100 0.1 1032628
21:00−30з2296100 0.1 103333
1 марта, пн
пн100:00−33зюз119987 0.0 103319
03:00−33юз1210092 0.0 103319
06:00−34юз12100100 0.0 103419
09:00−34юз11100100 0.1 103425
12:00−27зюз2393100 0.0 1032371
15:00−25зюз2490100 0.1 1030689
18:00−27ююз1297100 0.1 103020
21:00−31ююв119899 0.1 103019
2 марта, вт
вт200:00−33юв119986 0.0 102919
03:00−34вюв1110083 0.0 102819
06:00−35в1110064 0.0 102819
09:00−33в119745 0.0 102719
12:00−25вюв238741 0.0 1024323
15:00−22в238055 0.0 1023711
18:00−26всв238715 0.0 102231
21:00−30всв23918 0.0 102461
3 марта, ср
ср300:00−32в22940 0.0 102320
03:00−33всв22951 0.0 102420
06:00−34св229529 0.0 102421
09:00−33св129435 0.0 102540
12:00−26с128656 0.0 1023443
15:00−24ссз348778 0.0 1023664
18:00−28ссз2595100 0.0 102389
21:00−34сз229893 0.0 102519